Orbital Elements at Epoch 2459200.5 (2020-Dec-17.0) TDB
Reference: JPL 22 (heliocentric ecliptic J2000)
Element | Value | Uncertainty (1-sigma) | Units |
e | .1063322867524782 | 4.6869e-08 | |
a | 2.31645680479597 | 1.1752e-08 | au |
q | 2.070142655578676 | 1.0901e-07 | au |
i | 7.549891319811757 | 5.6575e-06 | deg |
node | 60.29546924712334 | 3.4463e-05 | deg |
peri | 194.1752663304115 | 4.3271e-05 | deg |
M | 273.227745774755 | 2.8456e-05 | deg |
tp | 2459510.893855533399 (2021-Oct-23.39385553) | 0.00010233 | TDB |
period | 1287.759422521885 3.53 | 9.7999e-06 2.683e-08 | d yr |
n | .279555321983196 | 2.1274e-09 | deg/d |
Q | 2.562770954013265 | 1.3002e-08 | au |
|
| | Orbit Determination Parameters
Additional Information
|